User: anonymous   Login
Location: Caltech
(34.1382°N, 118.1253°W)
Time: 22:14:33
(UTC-07:00)
Language:

Cosmos 1697 Rocket - Orbit

View from above orbital plane
View from above orbital plane
View from above satellite
View from above satellite

Ground track
Ground track

The orbit data is extracted from the following two-line orbital elements,

1 16182U 85097B   17115.58746462 -.00000067 +00000-0 -96624-5 0  9991
2 16182 071.0005 118.7336 0007093 171.0182 328.4871 14.16211289628498
Epoch (UTC): 25 April 2017 14:05:56
Eccentricity: 0.0007093
inclination: 71.0005°
perigee height: 833 km
apogee height: 843 km
right ascension of ascending node: 118.7336°
argument of perigee: 171.0182°
revolutions per day: 14.16211289
mean anomaly at epoch: 328.4871°
orbit number at epoch: 62849

The dashed part of the orbit path shows where the satellite is in the earth's shadow,  

DLR